This is the latest recevied weather packets stored in our database for station/object OE-11361. If no packets are shown the sender has not sent any weather packets the latest 10 day(s).
| Time | Temp. | Humidity | Pressure | Rain* | Wind** | Luminosity | Snow |
|---|---|---|---|---|---|---|---|
| 1787918103 | 33.33° C | 39% | 1006 hPa | 0 mm | - | 717 W/m² | - |
| 1787917276 | 32.78° C | 40% | 1006.2 hPa | 0 mm | - | 737 W/m² | - |
| 1787916904 | 32.22° C | 43% | 1006.3 hPa | 0 mm | - | 744 W/m² | - |
| 1787916304 | 32.22° C | 41% | 1006.4 hPa | 0 mm | - | 731 W/m² | - |
| 1787915476 | 31.67° C | 44% | 1006.5 hPa | 0 mm | - | 724 W/m² | - |
| 1787915104 | 31.11° C | 42% | 1006.7 hPa | 0 mm | - | 717 W/m² | - |
| 1787914504 | 31.11° C | 44% | 1006.9 hPa | 0 mm | - | 710 W/m² | - |
| 1787913677 | 30.56° C | 45% | 1007 hPa | 0 mm | - | 703 W/m² | - |
| 1787913304 | 30.56° C | 48% | 1006.9 hPa | 0 mm | - | 689 W/m² | - |
| 1787912704 | 29.44° C | 48% | 1007.1 hPa | 0 mm | - | 696 W/m² | - |
| 1787911877 | 29.44° C | 47% | 1007.4 hPa | 0 mm | - | 696 W/m² | - |
| 1787911504 | 29.44° C | 50% | 1007.4 hPa | 0 mm | - | 675 W/m² | - |
| 1787910903 | 28.89° C | 48% | 1007.6 hPa | 0 mm | - | 662 W/m² | - |
| 1787910077 | 28.33° C | 50% | 1008 hPa | 0 mm | - | 648 W/m² | - |
| 1787909704 | 28.33° C | 51% | 1008.5 hPa | 0 mm | - | 627 W/m² | - |
| 1787909104 | 28.33° C | 54% | 1008.5 hPa | 0 mm | - | 613 W/m² | - |
| 1787908276 | 27.78° C | 54% | 1009.2 hPa | 0 mm | - | 593 W/m² | - |
| 1787907904 | 27.22° C | 52% | 1009.3 hPa | 0 mm | - | 565 W/m² | - |
| 1787907304 | 26.67° C | 55% | 1009.7 hPa | 0 mm | - | 551 W/m² | - |
| 1787906476 | 26.67° C | 56% | 1009.6 hPa | 0 mm | - | 538 W/m² | - |
| 1787906103 | 26.67° C | 58% | 1009.7 hPa | 0 mm | - | 510 W/m² | - |
| 1787905504 | 26.67° C | 57% | 1009.7 hPa | 0 mm | - | 482 W/m² | - |
| 1787904677 | 26.11° C | 58% | 1010.1 hPa | 0 mm | - | 393 W/m² | - |
| 1787904304 | 25.56° C | 60% | 1010.3 hPa | 0 mm | - | 324 W/m² | - |
| 1787903704 | 24.44° C | 64% | 1010.1 hPa | 0 mm | - | 338 W/m² | - |
* Rain latest hour (hover to see other rain measurements)
** Current wind speed in m/s (hover to see current wind gust speed)